Find Starlink 35049

NORAD ID: 65444 Int'l Des: 2025-194 Owner: SPXS Country: US Constellation: starlink operational
LEOCIRCULARRETROGRADESSO

Live Position

Loading 3D Globe...

About Starlink 35049

Description loading...

Upcoming Passes

Passes for default location (London). Set your location on the main map for personalized predictions.

Altitude History

Loading altitude history...

Two-Line Element Set

1 65444U 25194L 26106.07961266 .00004051 00000-0 28468-3 0 9997
2 65444 97.6039 321.2397 0001692 84.0763 276.0657 15.05663237 35270
Epoch: Apr 16, 2026 • Age: 12 hours

Current Status

Altitude 561.8 km
Velocity 7.59 km/s
Sub-Earth Point 81.98°N, 155.39°W
Launch Date Sep 3, 2025
Age 0.6 years
Type internet

Technical Details

Classification Payload
Mass 575.00 kg
Dry Mass 530.00 kg
Total Mass 575.00 kg
Length 0.30 m
Diameter 4.10 m
Span 29.00 m
Shape Box + pan
Manufacturer SPXS
Bus Type Starlink V2MO
Phase Status In Orbit
Owner/State SPXS/US

Most Searched